"2016-02-06 00:00:00",1349211,7.557,217.7,6.828,1.274,4.521,99.7292,-1.39,-0.077,31.99,0,109.7,13.33,-0.64,179.7
"2016-02-06 00:00:30",1349212,7.372,215.7,6.92,1.215,4.616,99.72836,-1.392,-0.078,32.01,0,109.7,13.33,-0.64,177.7
"2016-02-06 00:01:00",1349213,7.426,216.6,6.625,1.199,4.486,99.72836,-1.392,-0.09,32,0,109.7,13.33,-0.64,178.6
"2016-02-06 00:01:30",1349214,7.46,219.5,6.437,1.249,4.609,99.72836,-1.392,-0.079,31.92,0,109.8,13.33,-0.64,181.5
"2016-02-06 00:02:00",1349215,7.441,215.1,6.388,1.264,4.447,99.72014,-1.413,-0.095,31.91,0,109.7,13.33,-0.67,177.1
"2016-02-06 00:02:30",1349216,7.761,215.2,6.478,1.131,4.538,99.71137,-1.435,-0.125,31.93,0,109.7,13.33,-0.69,177.2
"2016-02-06 00:03:00",1349217,7.573,212.1,6.289,1.185,4.237,99.70232,-1.458,-0.134,31.88,0,109.7,13.33,-0.71,174.1
"2016-02-06 00:03:30",1349218,7.337,212.1,7.242,1.315,4.138,99.69524,-1.476,-0.145,31.99,0,109.7,13.33,-0.73,174.1
"2016-02-06 00:04:00",1349219,7.576,211.7,6.332,1.197,4.185,99.69524,-1.476,-0.138,32.09,0,109.6,13.33,-0.73,173.7
"2016-02-06 00:04:30",1349220,7.511,208.6,6.341,1.164,4.257,99.69891,-1.467,-0.179,32.17,0,109.7,13.33,-0.72,170.6
"2016-02-06 00:05:00",1349221,7.437,210.5,8.22,1.229,4.082,99.69353,-1.481,-0.189,32.09,0,109.7,13.33,-0.73,172.5
"2016-02-06 00:05:30",1349222,7.337,206.8,6.482,1.244,3.997,99.68616,-1.5,-0.185,32.24,0,109.7,13.33,-0.75,168.8
"2016-02-06 00:06:00",1349223,7.396,201.3,6.565,1.164,3.984,99.68587,-1.5,-0.198,32.79,0,109.7,13.33,-0.75,163.3
"2016-02-06 00:06:30",1349224,7.362,203.8,6.861,1.264,3.927,99.67567,-1.526,-0.188,33.06,0,109.7,13.33,-0.78,165.8
"2016-02-06 00:07:00",1349225,7.694,201.8,6.724,1.218,3.986,99.67455,-1.529,-0.224,32.79,0,109.6,13.33,-0.78,163.8
"2016-02-06 00:07:30",1349226,7.567,204.8,6.309,1.209,4.324,99.67595,-1.526,-0.244,32.8,0,109.7,13.33,-0.78,166.8
"2016-02-06 00:08:00",1349227,7.423,209.8,6.602,1.214,4.358,99.66094,-1.564,-0.248,32.71,0,109.7,13.33,-0.82,171.8
"2016-02-06 00:08:30",1349228,7.531,207.2,6.403,1.207,4.139,99.655,-1.579,-0.277,32.52,0,109.7,13.33,-0.83,169.2
"2016-02-06 00:09:00",1349229,7.443,208.7,6.121,1.252,4.076,99.6451,-1.604,-0.264,32.33,0,109.6,13.33,-0.86,170.7
"2016-02-06 00:09:30",1349230,7.707,207.6,6.516,1.147,4.185,99.64735,-1.598,-0.332,32.18,0,109.6,13.33,-0.85,169.6
"2016-02-06 00:10:00",1349231,7.558,207.5,6.549,1.207,4.153,99.63941,-1.619,-0.332,32.07,0,109.7,13.33,-0.87,169.5
"2016-02-06 00:10:30",1349232,7.481,207.4,6.268,1.241,4.214,99.6213,-1.665,-0.324,32.25,0,109.6,13.33,-0.92,169.4
"2016-02-06 00:11:00",1349233,7.854,208.8,6.076,1.187,4.681,99.61732,-1.675,-0.342,32.29,0,109.6,13.33,-0.93,170.8
"2016-02-06 00:11:30",1349234,7.83,207.5,5.874,1.198,4.362,99.6179,-1.674,-0.365,32.09,0,109.6,13.33,-0.93,169.5
"2016-02-06 00:12:00",1349235,7.763,206.8,7.281,1.259,4.019,99.61137,-1.69,-0.397,32,0,109.6,13.33,-0.94,168.8
"2016-02-06 00:12:30",1349236,7.757,207.9,6.281,1.209,4.343,99.59156,-1.741,-0.424,32.01,0,109.6,13.34,-0.99,169.9
"2016-02-06 00:13:00",1349237,7.909,208.6,6.508,1.22,4.293,99.5876,-1.751,-0.448,31.87,0,109.6,13.34,-1.00,170.6
"2016-02-06 00:13:30",1349238,7.688,213.4,7.217,1.256,4.375,99.5808,-1.768,-0.453,31.83,0,109.6,13.35,-1.02,175.4
"2016-02-06 00:14:00",1349239,7.949,215.9,6.353,1.2,4.608,99.57031,-1.795,-0.468,32,0,109.6,13.35,-1.05,177.9
"2016-02-06 00:14:30",1349240,7.971,213.6,7.305,1.209,4.348,99.55786,-1.827,-0.498,32.04,0,109.6,13.35,-1.08,175.6
"2016-02-06 00:15:00",1349241,7.985,215.7,9.6,1.282,4.507,99.54512,-1.859,-0.56,32.16,0,109.6,13.35,-1.11,177.7
"2016-02-06 00:15:30",1349242,7.814,216.7,6.756,1.228,4.602,99.53068,-1.896,-0.559,32.55,0,109.6,13.35,-1.15,178.7
"2016-02-06 00:16:00",1349243,7.738,215.5,5.956,1.301,4.43,99.52445,-1.912,-0.537,32.62,0,109.6,13.35,-1.17,177.5
"2016-02-06 00:16:30",1349244,7.786,211.6,6.296,1.219,4.32,99.51454,-1.937,-0.626,32.69,0,109.6,13.35,-1.19,173.6
"2016-02-06 00:17:00",1349245,7.708,210.5,6.398,1.188,4.617,99.50011,-1.974,-0.639,32.86,0,109.6,13.35,-1.23,172.5
"2016-02-06 00:17:30",1349246,7.767,210.6,6.647,1.302,4.381,99.49048,-1.998,-0.643,32.94,0,109.6,13.35,-1.25,172.6
"2016-02-06 00:18:00",1349247,7.698,214.1,8.61,1.203,4.329,99.47887,-2.028,-0.707,33.1,0,109.6,13.35,-1.28,176.1
"2016-02-06 00:18:30",1349248,7.583,212.2,8.05,1.234,4.313,99.46246,-2.07,-0.681,33.36,0,109.6,13.35,-1.32,174.2
"2016-02-06 00:19:00",1349249,7.601,217.3,7.893,1.381,4.125,99.45623,-2.086,-0.741,33.58,0,109.6,13.35,-1.34,179.3
"2016-02-06 00:19:30",1349250,8.15,213.4,7.85,1.212,4.852,99.44547,-2.113,-0.754,33.5,0,109.6,13.35,-1.37,175.4
"2016-02-06 00:20:00",1349251,7.528,215.6,8,1.231,4.592,99.43076,-2.15,-0.769,33.31,0,109.6,13.36,-1.41,177.6
"2016-02-06 00:20:30",1349252,7.66,210.4,8.25,1.295,4.203,99.42255,-2.171,-0.805,33.09,0,109.6,13.36,-1.43,172.4
"2016-02-06 00:21:00",1349253,7.613,212,6.447,1.309,4.439,99.41151,-2.2,-0.802,33.12,0,109.6,13.36,-1.46,174.0
"2016-02-06 00:21:30",1349254,8.05,206,7.077,1.21,4.439,99.3982,-2.233,-0.865,33.16,0,109.6,13.36,-1.49,168.0
"2016-02-06 00:22:00",1349255,7.868,210.6,7.344,1.293,4.228,99.39505,-2.241,-0.912,33.1,0,109.6,13.36,-1.50,172.6
"2016-02-06 00:22:30",1349256,7.617,220.2,8.7,1.238,4.596,99.38854,-2.258,-0.928,33.22,0,109.6,13.36,-1.51,182.2
"2016-02-06 00:23:00",1349257,7.727,226.6,11.23,1.352,5.239,99.38284,-2.273,-0.913,33.5,0,109.6,13.36,-1.53,188.6
"2016-02-06 00:23:30",1349258,6.918,221.9,9.83,1.234,4.386,99.37066,-2.304,-0.946,33.77,0,109.6,13.35,-1.56,183.9
"2016-02-06 00:24:00",1349259,6.838,223.1,8.43,1.306,4.728,99.37149,-2.301,-0.963,33.78,0,109.6,13.36,-1.56,185.1
"2016-02-06 00:24:30",1349260,7.169,219.8,8.89,1.227,4.754,99.3664,-2.314,-0.999,33.9,0,109.6,13.36,-1.57,181.8
"2016-02-06 00:25:00",1349261,7.193,216.8,10.63,1.355,4.448,99.35507,-2.343,-1.033,33.93,0,109.6,13.35,-1.60,178.8
"2016-02-06 00:25:30",1349262,7.517,215.1,8.4,1.235,4.597,99.34629,-2.366,-1.006,33.88,0,109.6,13.35,-1.62,177.1
"2016-02-06 00:26:00",1349263,7.735,218.2,8.29,1.226,4.843,99.33894,-2.384,-1.02,34.01,0,109.6,13.36,-1.64,180.2
"2016-02-06 00:26:30",1349264,7.409,225.1,10.11,1.425,4.811,99.34061,-2.38,-1.049,34.24,0,109.6,13.36,-1.64,187.1
"2016-02-06 00:27:00",1349265,7.595,218.5,8.51,1.127,4.773,99.34399,-2.372,-1.077,34.38,0,109.6,13.36,-1.63,180.5
"2016-02-06 00:27:30",1349266,7.866,222.9,9.21,1.358,4.727,99.34595,-2.367,-1.079,34.55,0,109.6,13.36,-1.62,184.9
"2016-02-06 00:28:00",1349267,7.771,230,9.27,1.446,5.154,99.34595,-2.367,-1.054,34.75,0,109.5,13.36,-1.62,192.0
"2016-02-06 00:28:30",1349268,7.843,237.7,6.835,1.231,5.17,99.34624,-2.366,-1.084,34.85,0,109.5,13.36,-1.62,199.7
"2016-02-06 00:29:00",1349269,7.558,232.7,7.402,1.267,5.201,99.34737,-2.363,-1.096,35.09,0,109.5,13.36,-1.62,194.7
"2016-02-06 00:29:30",1349270,7.203,230.6,7.315,1.358,5.014,99.35102,-2.354,-1.07,35.05,0,109.5,13.36,-1.61,192.6
"2016-02-06 00:30:00",1349271,7.514,230.9,8.96,1.195,4.992,99.35103,-2.354,-1.097,35.11,0,109.6,13.37,-1.61,192.9
"2016-02-06 00:30:30",1349272,7.132,227.6,7.196,1.454,4.668,99.35384,-2.346,-1.078,35.14,0,109.6,13.37,-1.60,189.6
"2016-02-06 00:31:00",1349273,7.543,240.7,6.49,1.403,5.015,99.35384,-2.346,-1.072,35.22,0,109.6,13.37,-1.60,202.7
"2016-02-06 00:31:30",1349274,6.988,236.9,7.941,1.26,4.856,99.35412,-2.346,-1.08,35.31,0,109.6,13.37,-1.60,198.9
"2016-02-06 00:32:00",1349275,7.082,227.5,9.56,1.247,4.954,99.35439,-2.345,-1.086,35.37,0,109.6,13.37,-1.60,189.5
"2016-02-06 00:32:30",1349276,6.948,234.6,7.97,1.236,4.623,99.35439,-2.345,-1.049,35.41,0,109.5,13.37,-1.60,196.6
"2016-02-06 00:33:00",1349277,6.299,225.2,9.23,1.271,4.559,99.35468,-2.344,-1.04,35.51,0,109.5,13.38,-1.60,187.2
"2016-02-06 00:33:30",1349278,6.895,228.9,7.338,1.189,4.651,99.35751,-2.337,-1.074,35.44,0,109.5,13.38,-1.59,190.9
"2016-02-06 00:34:00",1349279,6.763,217.5,11.68,1.306,4.63,99.36034,-2.33,-1.056,35.37,0,109.5,13.37,-1.59,179.5
"2016-02-06 00:34:30",1349280,6.79,222.1,7.901,1.328,4.29,99.36515,-2.318,-1.06,35.27,0,109.5,13.38,-1.57,184.1
"2016-02-06 00:35:00",1349281,6.968,228.8,11.3,1.272,4.867,99.36827,-2.31,-1.028,35.29,0,109.5,13.38,-1.57,190.8
"2016-02-06 00:35:30",1349282,6.669,227.7,8.45,1.134,4.713,99.36997,-2.305,-1.032,35.39,0,109.5,13.38,-1.56,189.7
"2016-02-06 00:36:00",1349283,7.116,229.1,8.46,1.26,4.348,99.37054,-2.304,-1.024,35.48,0,109.5,13.38,-1.56,191.1
"2016-02-06 00:36:30",1349284,6.983,233.8,8.56,1.109,4.485,99.37082,-2.303,-1.032,35.64,0,109.5,13.38,-1.56,195.8
"2016-02-06 00:37:00",1349285,7.129,223.7,9.94,1.267,4.438,99.37167,-2.301,-1.034,35.69,0,109.5,13.38,-1.56,185.7
"2016-02-06 00:37:30",1349286,6.782,220,9.45,1.324,4.331,99.37167,-2.301,-1.013,35.66,0,109.5,13.38,-1.56,182.0
"2016-02-06 00:38:00",1349287,6.706,219.6,6.812,1.278,4.636,99.37307,-2.297,-1.017,35.65,0,109.5,13.38,-1.55,181.6
"2016-02-06 00:38:30",1349288,7.032,229.3,7.825,1.185,4.659,99.37814,-2.285,-1.002,35.65,0,109.5,13.38,-1.54,191.3
"2016-02-06 00:39:00",1349289,7.121,220.4,8.41,1.325,4.428,99.37953,-2.281,-1.037,35.7,0,109.5,13.38,-1.54,182.4
"2016-02-06 00:39:30",1349290,6.943,225.8,8.37,1.194,4.509,99.37923,-2.282,-1.02,35.75,0,109.5,13.38,-1.54,187.8
"2016-02-06 00:40:00",1349291,6.763,229.2,11.77,1.308,4.538,99.37752,-2.286,-0.994,35.77,0,109.5,13.38,-1.54,191.2
"2016-02-06 00:40:30",1349292,6.776,227.4,8.83,1.224,4.325,99.37496,-2.293,-1.037,35.7,0,109.5,13.37,-1.55,189.4
"2016-02-06 00:41:00",1349293,6.825,227.3,6.718,1.156,4.771,99.37269,-2.298,-1.04,35.72,0,109.5,13.37,-1.55,189.3
"2016-02-06 00:41:30",1349294,6.393,227.4,7.909,1.268,4.441,99.37157,-2.301,-1.002,35.75,0,109.5,13.37,-1.56,189.4
"2016-02-06 00:42:00",1349295,6.67,222.6,7.998,1.328,4.525,99.37157,-2.301,-1.031,35.69,0,109.5,13.37,-1.56,184.6
"2016-02-06 00:42:30",1349296,7.517,219.9,7.784,1.328,4.342,99.37157,-2.301,-1.006,35.77,0,109.5,13.38,-1.56,181.9
"2016-02-06 00:43:00",1349297,6.97,232.5,12.14,1.203,4.419,99.37184,-2.301,-1.025,35.74,0,109.5,13.37,-1.56,194.5
"2016-02-06 00:43:30",1349298,7.342,228.6,7.526,1.175,4.704,99.37269,-2.298,-1.027,35.94,0,109.5,13.37,-1.55,190.6
"2016-02-06 00:44:00",1349299,7.006,223.7,6.72,1.184,4.759,99.37437,-2.294,-1.048,36.05,0,109.5,13.37,-1.55,185.7
"2016-02-06 00:44:30",1349300,6.785,220.8,7.896,1.302,4.464,99.37267,-2.298,-1.026,36.18,0,109.5,13.37,-1.55,182.8
"2016-02-06 00:45:00",1349301,7.047,217.3,7.829,1.182,4.814,99.36586,-2.316,-1.046,36.31,0,109.5,13.38,-1.57,179.3
"2016-02-06 00:45:30",1349302,7.206,217.4,6.654,1.224,4.688,99.36387,-2.321,-1.034,36.42,0,109.5,13.38,-1.58,179.4
"2016-02-06 00:46:00",1349303,7.452,221.2,7.39,1.268,4.33,99.36104,-2.328,-1.051,36.49,0,109.5,13.38,-1.58,183.2
"2016-02-06 00:46:30",1349304,7.471,225.8,7.431,1.221,4.629,99.36187,-2.326,-1.046,36.45,0,109.5,13.38,-1.58,187.8
"2016-02-06 00:47:00",1349305,7.47,224.9,7.511,1.212,4.677,99.3616,-2.327,-1.065,36.35,0,109.5,13.38,-1.58,186.9
"2016-02-06 00:47:30",1349306,7.196,222.6,6.493,1.208,4.846,99.3579,-2.336,-1.089,36.42,0,109.5,13.38,-1.59,184.6
"2016-02-06 00:48:00",1349307,7.174,219.5,7.017,1.204,4.603,99.35337,-2.348,-1.043,36.49,0,109.5,13.38,-1.60,181.5
"2016-02-06 00:48:30",1349308,7.325,217.7,6.807,1.312,4.663,99.34856,-2.36,-1.055,36.69,0,109.5,13.38,-1.62,179.7
"2016-02-06 00:49:00",1349309,7.705,212,7.224,1.29,4.402,99.34855,-2.36,-1.073,36.9,0,109.5,13.39,-1.62,174.0
"2016-02-06 00:49:30",1349310,7.535,215.6,8.21,1.139,4.493,99.34883,-2.359,-1.091,37.16,0,109.5,13.39,-1.62,177.6
"2016-02-06 00:50:00",1349311,7.327,224.2,10.86,1.383,4.299,99.3508,-2.354,-1.096,37.18,0,109.5,13.39,-1.61,186.2
"2016-02-06 00:50:30",1349312,7.71,217.5,6.622,1.235,4.853,99.35023,-2.356,-1.066,37.15,0,109.5,13.39,-1.61,179.5
"2016-02-06 00:51:00",1349313,7.849,214.7,6.83,1.161,4.401,99.34824,-2.361,-1.069,37.3,0,109.5,13.39,-1.62,176.7
"2016-02-06 00:51:30",1349314,7.351,211.9,6.402,1.213,4.001,99.34031,-2.381,-1.093,37.44,0,109.5,13.39,-1.64,173.9
"2016-02-06 00:52:00",1349315,7.623,210.1,6.465,1.214,4.32,99.33606,-2.392,-1.095,37.54,0,109.5,13.39,-1.65,172.1
"2016-02-06 00:52:30",1349316,7.306,209.1,6.647,1.236,4.454,99.33605,-2.392,-1.118,37.58,0,109.5,13.39,-1.65,171.1
"2016-02-06 00:53:00",1349317,6.822,207,6.227,1.251,4.313,99.33067,-2.406,-1.112,37.5,0,109.5,13.39,-1.66,169.0
"2016-02-06 00:53:30",1349318,7.054,210.7,8.73,1.273,4.535,99.32217,-2.427,-1.099,37.51,0,109.5,13.39,-1.68,172.7
"2016-02-06 00:54:00",1349319,7.941,215.3,8.12,1.198,4.566,99.32019,-2.432,-1.109,37.49,0,109.5,13.39,-1.69,177.3
"2016-02-06 00:54:30",1349320,7.602,217.5,10.09,1.257,4.31,99.32019,-2.432,-1.138,37.48,0,109.5,13.39,-1.69,179.5
"2016-02-06 00:55:00",1349321,7.286,217.1,6.716,1.226,4.376,99.32019,-2.432,-1.16,37.45,0,109.5,13.39,-1.69,179.1
"2016-02-06 00:55:30",1349322,7.376,214.8,6.855,1.256,4.557,99.31622,-2.442,-1.145,37.47,0,109.5,13.39,-1.70,176.8
"2016-02-06 00:56:00",1349323,7.405,212.7,6.053,1.224,4.4,99.30545,-2.47,-1.16,37.49,0,109.5,13.39,-1.73,174.7
"2016-02-06 00:56:30",1349324,7.598,210.5,6.456,1.19,4.575,99.3029,-2.476,-1.178,37.61,0,109.5,13.39,-1.73,172.5
"2016-02-06 00:57:00",1349325,7.566,212.9,6.911,1.264,4.405,99.29555,-2.495,-1.173,37.72,0,109.5,13.39,-1.75,174.9
"2016-02-06 00:57:30",1349326,8.03,216.1,6.378,1.152,4.495,99.28733,-2.516,-1.196,37.77,0,109.5,13.39,-1.77,178.1
"2016-02-06 00:58:00",1349327,7.521,217.6,6.774,1.209,4.812,99.2862,-2.519,-1.172,37.88,0,109.5,13.39,-1.78,179.6
"2016-02-06 00:58:30",1349328,7.44,215.2,6.426,1.244,4.522,99.2862,-2.519,-1.194,37.8,0,109.5,13.39,-1.78,177.2
"2016-02-06 00:59:00",1349329,7.717,214.3,6.506,1.135,4.609,99.2862,-2.519,-1.217,37.9,0,109.5,13.39,-1.78,176.3
"2016-02-06 00:59:30",1349330,7.722,215.2,6.908,1.248,4.83,99.2862,-2.519,-1.234,38,0,109.5,13.39,-1.78,177.2
"2016-02-06 01:00:00",1349331,7.915,217.4,8.64,1.293,4.643,99.2862,-2.519,-1.215,38.01,0,109.5,13.39,-1.78,179.4
"2016-02-06 01:00:30",1349332,7.835,218,6.102,1.259,4.532,99.28535,-2.521,-1.212,38.37,0,109.5,13.39,-1.78,180.0
"2016-02-06 01:01:00",1349333,7.984,220.5,6.654,1.317,4.568,99.28195,-2.53,-1.22,38.7,0,109.5,13.39,-1.79,182.5
"2016-02-06 01:01:30",1349334,7.849,220.5,7.151,1.32,4.659,99.28053,-2.533,-1.244,38.6,0,109.5,13.39,-1.79,182.5
"2016-02-06 01:02:00",1349335,7.995,224.3,7.395,1.27,4.907,99.27769,-2.54,-1.25,38.68,0,109.5,13.39,-1.80,186.3
"2016-02-06 01:02:30",1349336,7.564,226,8.27,1.305,5.206,99.27798,-2.54,-1.227,38.68,0,109.5,13.39,-1.80,188.0
"2016-02-06 01:03:00",1349337,7.28,228.5,6.837,1.286,4.87,99.28052,-2.533,-1.23,38.3,0,109.5,13.39,-1.79,190.5
"2016-02-06 01:03:30",1349338,7.54,226,8.45,1.224,4.857,99.28362,-2.525,-1.228,38.27,0,109.5,13.39,-1.78,188.0
"2016-02-06 01:04:00",1349339,7.799,225.6,6.431,1.162,4.839,99.28786,-2.515,-1.245,38.33,0,109.5,13.39,-1.77,187.6
"2016-02-06 01:04:30",1349340,7.637,225.6,6.242,1.245,4.783,99.29237,-2.503,-1.265,38.37,0,109.5,13.39,-1.76,187.6
"2016-02-06 01:05:00",1349341,7.757,221.9,7.064,1.222,4.822,99.2952,-2.496,-1.222,38.6,0,109.5,13.39,-1.75,183.9
"2016-02-06 01:05:30",1349342,7.797,221.8,6.334,1.242,4.916,99.29716,-2.491,-1.226,38.81,0,109.5,13.39,-1.75,183.8
"2016-02-06 01:06:00",1349343,8.1,225.7,7.332,1.256,4.942,99.29829,-2.488,-1.22,38.99,0,109.5,13.4,-1.74,187.7
"2016-02-06 01:06:30",1349344,8.57,223.5,5.985,1.184,4.739,99.29885,-2.487,-1.22,39.02,0,109.5,13.39,-1.74,185.5
"2016-02-06 01:07:00",1349345,8.34,222.6,8.12,1.257,4.832,99.30195,-2.479,-1.22,39.02,0,109.5,13.4,-1.74,184.6
"2016-02-06 01:07:30",1349346,7.998,225.8,5.924,1.25,5.173,99.30223,-2.478,-1.214,38.8,0,109.5,13.4,-1.73,187.8
"2016-02-06 01:08:00",1349347,8.17,229.1,7.501,1.26,5.026,99.30279,-2.477,-1.192,38.71,0,109.5,13.4,-1.73,191.1
"2016-02-06 01:08:30",1349348,8.51,227.3,6.958,1.236,4.998,99.30308,-2.476,-1.233,38.45,0,109.5,13.4,-1.73,189.3
"2016-02-06 01:09:00",1349349,8.24,228.8,7.121,1.206,5.254,99.30532,-2.47,-1.196,38.56,0,109.5,13.4,-1.73,190.8
"2016-02-06 01:09:30",1349350,8.51,228,7.585,1.248,4.967,99.3124,-2.452,-1.2,38.42,0,109.5,13.4,-1.71,190.0
"2016-02-06 01:10:00",1349351,8.14,229.3,6.508,1.292,4.998,99.31721,-2.44,-1.196,38.33,0,109.5,13.4,-1.70,191.3
"2016-02-06 01:10:30",1349352,8.29,226.6,6.592,1.268,5.046,99.32316,-2.425,-1.191,38.2,0,109.5,13.4,-1.68,188.6
"2016-02-06 01:11:00",1349353,9.03,229.2,7.202,1.206,5.206,99.32373,-2.423,-1.17,37.83,0,109.4,13.4,-1.68,191.2
"2016-02-06 01:11:30",1349354,8.51,230.7,6.693,1.195,5.311,99.32939,-2.409,-1.196,37.52,0,109.5,13.4,-1.67,192.7
"2016-02-06 01:12:00",1349355,8.3,228.7,7.284,1.302,5.227,99.33987,-2.382,-1.141,37.51,0,109.5,13.4,-1.64,190.7
"2016-02-06 01:12:30",1349356,8.09,229,6.844,1.409,5.287,99.34017,-2.381,-1.145,37.58,0,109.5,13.4,-1.64,191.0
"2016-02-06 01:13:00",1349357,8.13,230.5,6.582,1.207,5.106,99.34158,-2.378,-1.149,37.52,0,109.5,13.4,-1.63,192.5
"2016-02-06 01:13:30",1349358,8.82,230.4,6.831,1.158,5.024,99.33988,-2.382,-1.154,37.68,0,109.5,13.39,-1.64,192.4
"2016-02-06 01:14:00",1349359,8.63,230.3,6.735,1.238,4.896,99.34017,-2.381,-1.159,37.78,0,109.5,13.39,-1.64,192.3
"2016-02-06 01:14:30",1349360,8.6,230.8,5.866,1.196,5.579,99.34045,-2.381,-1.129,37.6,0,109.5,13.39,-1.64,192.8
"2016-02-06 01:15:00",1349361,8.48,230.8,6.909,1.222,5.281,99.34129,-2.378,-1.103,37.68,0,109.5,13.39,-1.63,192.8
"2016-02-06 01:15:30",1349362,8.83,229.9,7.388,1.165,4.976,99.34158,-2.378,-1.098,37.97,0,109.5,13.39,-1.63,191.9
"2016-02-06 01:16:00",1349363,8.73,231.3,6.693,1.206,5.3,99.34779,-2.362,-1.113,38.13,0,109.5,13.39,-1.62,193.3
"2016-02-06 01:16:30",1349364,8.95,230.7,6.406,1.165,5.147,99.3512,-2.353,-1.112,38.05,0,109.5,13.39,-1.61,192.7
"2016-02-06 01:17:00",1349365,8.82,233.2,6.841,1.248,5.233,99.35434,-2.345,-1.109,37.96,0,109.5,13.39,-1.60,195.2
"2016-02-06 01:17:30",1349366,8.82,234.7,7.094,1.197,5.194,99.35913,-2.333,-1.067,37.84,0,109.5,13.39,-1.59,196.7
"2016-02-06 01:18:00",1349367,9.1,231.5,7.585,1.206,5.277,99.3597,-2.332,-1.067,37.49,0,109.5,13.39,-1.59,193.5
"2016-02-06 01:18:30",1349368,8.88,236.5,6.993,1.257,4.806,99.35941,-2.332,-1.078,37.1,0,109.5,13.39,-1.59,198.5
"2016-02-06 01:19:00",1349369,8.94,230,7.102,1.247,4.839,99.35998,-2.331,-1.088,36.79,0,109.5,13.4,-1.59,192.0
"2016-02-06 01:19:30",1349370,8.48,235.3,7.332,1.211,5.2,99.36365,-2.321,-1.083,36.74,0,109.5,13.4,-1.58,197.3
"2016-02-06 01:20:00",1349371,8.44,233.3,7.026,1.274,5.01,99.36308,-2.323,-1.063,36.84,0,109.5,13.4,-1.58,195.3
"2016-02-06 01:20:30",1349372,8.33,232,6.95,1.276,5.173,99.36534,-2.317,-1.065,37.17,0,109.5,13.4,-1.57,194.0
"2016-02-06 01:21:00",1349373,8.73,231,6.107,1.244,5.18,99.36449,-2.319,-1.052,37.18,0,109.5,13.4,-1.58,193.0
"2016-02-06 01:21:30",1349374,8.71,230.6,6.248,1.153,5.015,99.36562,-2.316,-1.065,36.93,0,109.5,13.4,-1.57,192.6
"2016-02-06 01:22:00",1349375,8.08,235.2,6.463,1.233,5.313,99.3642,-2.32,-1.056,36.92,0,109.5,13.4,-1.58,197.2
"2016-02-06 01:22:30",1349376,7.253,235.8,6.654,1.326,4.751,99.36533,-2.317,-1.043,36.53,0,109.5,13.4,-1.57,197.8
"2016-02-06 01:23:00",1349377,8.1,232.5,9.81,1.216,4.71,99.36533,-2.317,-1.079,36.38,0,109.4,13.4,-1.57,194.5
"2016-02-06 01:23:30",1349378,7.952,232.4,7.021,1.288,4.919,99.36363,-2.322,-1.065,36.3,0,109.5,13.4,-1.58,194.4
"2016-02-06 01:24:00",1349379,7.969,236.6,7.408,1.223,4.946,99.36475,-2.319,-1.05,36.2,0,109.5,13.4,-1.57,198.6
"2016-02-06 01:24:30",1349380,8.29,234,6.955,1.266,4.91,99.36504,-2.318,-1.061,36.17,0,109.5,13.4,-1.57,196.0
"2016-02-06 01:25:00",1349381,8.46,241.6,6.343,1.354,4.995,99.36362,-2.322,-1.041,36.09,0,109.5,13.4,-1.58,203.6
"2016-02-06 01:25:30",1349382,8.69,236.3,9.16,1.297,4.74,99.35796,-2.336,-1.062,35.95,0,109.5,13.4,-1.59,198.3
"2016-02-06 01:26:00",1349383,8.62,244.4,6.832,1.202,4.899,99.35909,-2.333,-1.085,35.91,0,109.5,13.41,-1.59,206.4
"2016-02-06 01:26:30",1349384,8.28,240.8,7.455,1.377,5.233,99.35654,-2.34,-1.06,35.96,0,109.5,13.4,-1.60,202.8
"2016-02-06 01:27:00",1349385,7.607,237.8,7.703,1.169,4.892,99.35542,-2.342,-1.067,36.04,0,109.5,13.4,-1.60,199.8
"2016-02-06 01:27:30",1349386,8.24,237.8,6.613,1.126,4.769,99.35542,-2.342,-1.056,36.15,0,109.5,13.41,-1.60,199.8
"2016-02-06 01:28:00",1349387,8.19,238.1,6.702,1.225,4.72,99.35484,-2.344,-1.077,36.19,0,109.5,13.41,-1.60,200.1
"2016-02-06 01:28:30",1349388,8.12,243.6,6.918,1.214,4.865,99.35512,-2.343,-1.099,36.14,0,109.5,13.41,-1.60,205.6
"2016-02-06 01:29:00",1349389,7.926,244.9,7.788,1.23,4.975,99.35314,-2.348,-1.07,36.13,0,109.5,13.41,-1.60,206.9
"2016-02-06 01:29:30",1349390,8.11,241.9,6.509,1.332,4.834,99.3554,-2.342,-1.073,36.05,0,109.5,13.41,-1.60,203.9
"2016-02-06 01:30:00",1349391,7.98,240.8,6.114,1.33,5.044,99.35738,-2.337,-1.064,36.04,0,109.5,13.4,-1.59,202.8
"2016-02-06 01:30:30",1349392,8.06,240.3,7.277,1.204,4.75,99.35539,-2.343,-1.068,36.13,0,109.5,13.4,-1.60,202.3
"2016-02-06 01:31:00",1349393,7.915,241.9,8.9,1.307,4.501,99.3551,-2.343,-1.1,36.12,0,109.5,13.4,-1.60,203.9
"2016-02-06 01:31:30",1349394,7.807,239.6,7.114,1.262,4.872,99.35595,-2.341,-1.065,36.24,0,109.5,13.4,-1.60,201.6
"2016-02-06 01:32:00",1349395,7.965,241,6.811,1.239,4.76,99.35651,-2.34,-1.061,36.3,0,109.5,13.39,-1.60,203.0
"2016-02-06 01:32:30",1349396,8.15,239.4,6.587,1.23,4.717,99.3568,-2.339,-1.075,36.33,0,109.5,13.39,-1.60,201.4
"2016-02-06 01:33:00",1349397,8.49,241.4,6.351,1.208,4.841,99.35622,-2.34,-1.049,36.68,0,109.5,13.39,-1.60,203.4
"2016-02-06 01:33:30",1349398,8.63,248.3,7.074,1.199,4.749,99.35651,-2.34,-1.069,36.77,0,109.5,13.4,-1.60,210.3
"2016-02-06 01:34:00",1349399,7.982,244.5,7.274,1.281,4.725,99.35425,-2.345,-1.066,36.65,0,109.5,13.39,-1.60,206.5
"2016-02-06 01:34:30",1349400,8.13,245.8,6.479,1.313,4.917,99.35509,-2.343,-1.062,36.52,0,109.5,13.39,-1.60,207.8
"2016-02-06 01:35:00",1349401,8.66,245.5,6.917,1.232,4.815,99.35537,-2.343,-1.058,36.4,0,109.4,13.4,-1.60,207.5
"2016-02-06 01:35:30",1349402,8.51,246.3,6.922,1.205,4.777,99.3565,-2.34,-1.089,36.37,0,109.5,13.4,-1.60,208.3
"2016-02-06 01:36:00",1349403,8.49,249.5,6.714,1.25,5.022,99.35594,-2.341,-1.047,36.2,0,109.5,13.41,-1.60,211.5
"2016-02-06 01:36:30",1349404,8.36,242.4,6.781,1.222,4.986,99.35735,-2.337,-1.056,36.21,0,109.5,13.41,-1.59,204.4
"2016-02-06 01:37:00",1349405,8.07,244.1,6.503,1.263,4.7,99.35991,-2.331,-1.064,36.29,0,109.5,13.41,-1.59,206.1
"2016-02-06 01:37:30",1349406,8.48,244.3,6.638,1.163,4.573,99.36019,-2.33,-1.056,36.28,0,109.5,13.41,-1.59,206.3
"2016-02-06 01:38:00",1349407,8.43,242.5,6.473,1.313,4.547,99.35991,-2.331,-1.076,36.37,0,109.5,13.41,-1.59,204.5
"2016-02-06 01:38:30",1349408,8.5,242.3,6.657,1.198,5.166,99.36019,-2.33,-1.054,36.54,0,109.5,13.41,-1.59,204.3
"2016-02-06 01:39:00",1349409,8.73,247.4,6.256,1.326,4.936,99.36076,-2.329,-1.054,36.32,0,109.5,13.41,-1.59,209.4
"2016-02-06 01:39:30",1349410,8.65,243.9,7.067,1.252,4.573,99.36246,-2.324,-1.033,36.27,0,109.5,13.41,-1.58,205.9
"2016-02-06 01:40:00",1349411,8.52,247.5,6.855,1.257,4.682,99.36246,-2.325,-1.053,36.29,0,109.5,13.41,-1.58,209.5
"2016-02-06 01:40:30",1349412,8.4,247.4,6.078,1.168,4.733,99.36019,-2.33,-1.071,36.08,0,109.5,13.41,-1.59,209.4
"2016-02-06 01:41:00",1349413,8,245.8,7.057,1.31,4.875,99.35963,-2.332,-1.072,36.17,0,109.5,13.41,-1.59,207.8
"2016-02-06 01:41:30",1349414,8.01,245.1,6.203,1.276,4.728,99.36047,-2.33,-1.03,36.06,0,109.4,13.41,-1.59,207.1
"2016-02-06 01:42:00",1349415,8.1,247.9,6.316,1.159,5.028,99.35735,-2.337,-1.048,35.91,0,109.5,13.41,-1.59,209.9
"2016-02-06 01:42:30",1349416,8.19,246.8,6.348,1.254,4.471,99.35622,-2.34,-1.056,35.87,0,109.5,13.41,-1.60,208.8
"2016-02-06 01:43:00",1349417,7.848,246.1,7.091,1.218,4.653,99.35509,-2.343,-1.076,35.75,0,109.5,13.41,-1.60,208.1
"2016-02-06 01:43:30",1349418,7.83,240.8,6.585,1.281,4.806,99.35509,-2.343,-1.077,35.78,0,109.5,13.41,-1.60,202.8
"2016-02-06 01:44:00",1349419,7.689,239.6,7.003,1.308,4.944,99.35396,-2.346,-1.057,35.88,0,109.5,13.41,-1.60,201.6
"2016-02-06 01:44:30",1349420,7.892,239.9,6.53,1.183,4.621,99.35396,-2.346,-1.033,35.49,0,109.5,13.41,-1.60,201.9
"2016-02-06 01:45:00",1349421,7.851,243.2,6.687,1.193,4.82,99.35594,-2.341,-1.062,35.69,0,109.5,13.41,-1.60,205.2
"2016-02-06 01:45:30",1349422,8.25,244.1,6.598,1.143,4.62,99.35594,-2.341,-1.054,35.75,0,109.5,13.41,-1.60,206.1